FLOCK 3R-1 (43747 NORAD) Tracking and Keplerian Element Data

This shows tracking and keplerian element data for the satellite.

Feedback or suggestion? Click here.




ElementValue
Catalog43747
NameFLOCK 3R-1
Epoch Orbit173
Epoch Day344.5209315
Epoch Year2018
RAAN49.5349
Inclination97.4847
Eccentricity0.0020008
Argument of Perigee290.1679
Mean Anonmoly181.6802
Mean Motion15.26729915
Decay Rate2.713E-05
L11 43747U 18096AE 18344.52093150 .00002713 00000-0 10556-3 0 9997
L22 43747 97.4847 49.5349 0020008 290.1679 181.6802 15.26729915 1738

Live tracking and technical data element details for FLOCK 3R-1 (NORAD 43747). FLOCK 3R-1 can be tracked NOW for your location showing map with azimuth and elevation plus other details from your city location.

Track the satellite on the map from your city or location and see movement details for azimuth, elevation, latitude, longitude, range, height, and movement on the map or in text.







IsCatalogInMostPopularTable: catalog: 43747, numindb: 3
Update: records affected: 1



GetName: 43747 FLOCK 3R-1

Hit Count: updated at: Tue, 11 Dec 2018 03:33:34 GMT